Location: Champs
(48.8539°N, 2.6040°E)
Time: 13:42:47
(UTC+00:00)

Cosmos 1959 Rocket - Pass Details

Date: 26 October 2021
Orbit: 947 x 997 km, 83.0° (Epoch: 07 December)

Event Time Altitude Azimuth Distance (km) Brightness Sun altitude
Rises 03:37:48 0° 349° (N) 3,631 7.5 -28.3°
Reaches altitude 10° 03:40:18 10° 348° (NNW) 2,683 6.8 -27.9°
Maximum altitude 03:46:25 78° 264° (W) 978 4.3 -26.9°
Drops below altitude 10° 03:52:32 10° 179° (S) 2,684 6.7 -25.9°
Sets 03:55:02 0° 178° (S) 3,632 7.4 -25.5°
